[[{"header":{"parameterUnit":"m.s-1","parameterCategory":1,"la1":30.2991,"la2":30.254,"lo1":-89.0895,"lo2":-89.0444,"dy":0.0017,"dx":0.0017,"nx":28,"ny":28,"refTime":"2025-08-06T03:00:00:Z","depth":0,"parameterNumber":2,"parameterNumberName":"U-component_of_WINDS"},"data":[0,0,0,0,0,0,0,0,0,0,0,0,0,0,0,0,0,0,0,0,0,0,0,0,0,0,0,0,0,0,0,0,0,0,0,0,0,0,0,0,0,0,0,0,0,0,0,0,0,0,0,0,0,0,0,0,0,0,-1.7131,-1.713,0,-1.7065,-1.7065,-1.7064,-1.699,-1.6989,-1.6988,-1.6987,-1.692,-1.6919,-1.6919,0,0,0,0,0,0,0,0,0,0,0,0,0,-1.7192,-1.7192,-1.7131,-1.713,-1.713,-1.7066,-1.7065,-1.7064,-1.699,-1.6989,-1.6987,-1.6986,-1.692,-1.6919,-1.6919,0,0,0,0,0,0,0,0,0,0,0,0,0,-1.715,-1.7191,-1.7131,-1.7085,-1.708,-1.7066,-1.7065,-1.7063,-1.699,-1.6989,-1.6987,-1.6985,-1.6921,-1.692,-1.6918,-1.6944,0,0,-1.6915,-1.6915,0,0,0,0,0,0,0,0,-1.7153,-1.7148,-1.7093,-1.7088,-1.7083,-1.7034,-1.7062,-1.7024,-1.6991,-1.7024,-1.6987,-1.6985,-1.6959,-1.6955,-1.6946,-1.6941,-1.6939,-1.6915,-1.6914,-1.6914,-1.6913,0,0,0,0,0,0,0,-1.7156,-1.715,-1.7105,-1.7092,-1.7086,-1.7067,-1.706,-1.7054,-1.7002,-1.7021,-1.7016,-1.7009,-1.6956,-1.6948,-1.6944,-1.6938,-1.6915,-1.6914,-1.6913,-1.6913,-1.695,-1.6951,0,0,0,0,0,0,-1.7166,-1.7153,-1.7107,-1.7103,-1.7114,-1.7068,-1.7059,-1.7051,-1.7002,-1.6993,-1.7011,-1.7006,-1.695,-1.6946,-1.6942,-1.6969,-1.6914,-1.6913,-1.6912,-1.6948,-1.695,-1.6952,0,0,0,0,0,0,-1.7167,-1.7162,-1.711,-1.7127,-1.7119,-1.7068,-1.7061,-1.7051,-1.7042,-1.6994,-1.6984,-1.7011,-1.6949,-1.6943,-1.6944,-1.6966,-1.6912,-1.6911,-1.6946,-1.6949,-1.6951,-1.7024,0,0,0,0,0,0,-1.7169,-1.7163,-1.7173,-1.7127,-1.7118,-1.7114,-1.7062,-1.7051,-1.704,-1.7034,-1.6992,-1.6983,-1.6947,-1.6946,-1.6943,-1.6963,-1.691,-1.6944,-1.6947,-1.695,-1.702,-1.7029,-1.7037,0,0,0,0,0,-1.7172,-1.7196,-1.7174,-1.7169,-1.7129,-1.7115,-1.711,-1.7068,-1.7042,-1.7052,-1.702,-1.6985,-1.6963,-1.6947,-1.6943,-1.6963,-1.6943,-1.6946,-1.695,-1.7016,-1.7027,-1.7036,0,0,0,0,0,0,-1.7246,-1.719,-1.7164,-1.7175,-1.715,-1.7103,-1.7114,-1.7081,-1.7064,-1.7058,-1.7006,-1.6998,-1.7005,-1.6983,-1.6966,-1.6985,-1.6948,-1.6951,-1.6999,-1.7009,-1.7018,-1.7024,-1.6909,0,0,0,0,0,-1.7264,-1.7258,-1.7208,-1.7222,-1.7211,-1.7165,-1.7157,-1.7126,-1.7099,-1.7089,-1.7057,-1.7033,-1.702,-1.7013,-1.6999,-1.7015,-1.7005,-1.7027,-1.7035,-1.7043,-1.7047,-1.7053,-1.7063,-1.6964,-1.6964,-1.6964,0,0,-1.7301,-1.7269,-1.7268,-1.7237,-1.7214,-1.7209,-1.7157,-1.7153,-1.7149,-1.7088,-1.7088,-1.7063,-1.7032,-1.7041,-1.7043,-1.7023,-1.7071,-1.7047,-1.7053,-1.7053,-1.7058,-1.7068,-1.7076,-1.6967,-1.6966,-1.6966,0,0,-1.7365,-1.734,-1.7349,-1.7327,-1.7294,-1.7262,-1.7264,-1.7221,-1.7203,-1.7201,-1.7155,-1.7148,-1.7128,-1.7108,-1.7095,-1.7149,-1.7116,-1.7146,-1.7191,-1.7199,-1.7206,-1.7213,-1.7233,-1.7241,-1.7149,-1.715,-1.715,0,-1.7415,-1.7405,-1.7358,-1.7357,-1.7345,-1.7289,-1.7297,-1.7278,-1.7242,-1.7235,-1.7212,-1.7185,-1.716,-1.7163,-1.7177,-1.7167,-1.7168,-1.7152,-1.7209,-1.7215,-1.7221,-1.7239,-1.7247,-1.7153,-1.7153,-1.7153,-1.7152,0,-1.7469,-1.7463,-1.7474,-1.744,-1.7428,-1.7432,-1.7385,-1.7379,-1.7349,-1.7319,-1.7318,-1.7285,-1.7263,-1.7261,-1.7232,-1.726,-1.7249,-1.7218,-1.718,-1.7235,-1.7252,-1.7258,-1.7159,-1.7158,-1.7157,-1.7156,0,0,-1.7581,-1.7519,-1.7525,-1.7508,-1.7466,-1.746,-1.7461,-1.7439,-1.7435,-1.7411,-1.7411,-1.7394,-1.7365,-1.735,-1.7318,-1.7324,-1.737,-1.7292,-1.7291,-1.7309,-1.7399,-1.7424,-1.7433,-1.7346,-1.7347,-1.7348,-1.7402,0,-1.7639,-1.7638,-1.7595,-1.7606,-1.7599,-1.7544,-1.7545,-1.7519,-1.7491,-1.7481,-1.745,-1.7439,-1.7401,-1.7392,-1.7396,-1.7364,-1.7387,-1.7359,-1.7346,-1.7347,-1.7358,-1.7441,-1.7467,-1.752,-1.7408,-1.7409,-1.741,0,-1.7708,-1.7687,-1.7698,-1.7654,-1.765,-1.7651,-1.7627,-1.7618,-1.7587,-1.7566,-1.7549,-1.7511,-1.7509,-1.7471,-1.7467,-1.7449,-1.744,-1.7424,-1.7424,-1.7423,-1.7383,-1.7444,-1.7536,-1.7545,-1.742,-1.7419,-1.7418,0,-1.779,-1.7765,-1.7768,-1.7755,-1.7704,-1.7706,-1.7685,-1.7652,-1.7642,-1.762,-1.7613,-1.7591,-1.758,-1.7565,-1.7522,-1.7499,-1.7523,-1.7482,-1.7506,-1.7508,-1.7516,-1.7516,-1.761,-1.7508,-1.7508,-1.7508,-1.7507,0,-1.7861,-1.787,-1.7804,-1.7806,-1.7814,-1.7763,-1.7772,-1.7745,-1.7716,-1.7712,-1.7663,-1.766,-1.7603,-1.7593,-1.756,-1.7562,-1.7557,-1.754,-1.7531,-1.7546,-1.7548,-1.7541,-1.7537,-1.751,-1.7509,-1.7509,-1.7508,0,-1.7956,-1.7912,-1.7912,-1.7862,-1.785,-1.7858,-1.7816,-1.7816,-1.7784,-1.7779,-1.7775,-1.7725,-1.771,-1.7666,-1.7641,-1.7618,-1.7631,-1.7613,-1.7642,-1.7636,-1.7664,-1.7663,-1.7757,-1.7768,-1.7658,-1.7659,-1.766,0,-1.8005,-1.801,-1.7961,-1.7955,-1.7935,-1.7925,-1.7914,-1.7863,-1.7853,-1.7817,-1.7821,-1.7803,-1.7786,-1.7766,-1.7728,-1.7708,-1.769,-1.7725,-1.7687,-1.7701,-1.7692,-1.7694,-1.7694,-1.7734,-1.7735,-1.7736,-1.7737,0,-1.8097,-1.8075,-1.806,-1.8037,-1.8025,-1.8005,-1.7982,-1.7979,-1.7922,-1.7913,-1.7898,-1.7885,-1.7859,-1.7842,-1.7815,-1.7793,-1.7756,-1.7749,-1.7754,-1.777,-1.7787,-1.7779,-1.7666,-1.7748,-1.7747,-1.7746,-1.7745,-1.7745,-1.8171,-1.8173,-1.8139,-1.8124,-1.8101,-1.808,-1.8078,-1.8044,-1.8031,-1.8006,-1.7976,-1.7964,-1.7931,-1.7892,-1.7872,-1.7863,-1.7843,-1.7849,-1.7851,-1.7854,-1.7862,-1.7786,-1.7857,-1.7857,-1.7857,-1.7856,-1.7856,0,-1.8262,-1.8237,-1.8223,-1.8192,-1.818,-1.8145,-1.8117,-1.811,-1.81,-1.8072,-1.8056,-1.8039,-1.8021,-1.798,-1.7959,-1.7959,-1.7941,-1.7955,-1.7956,-1.7951,-1.788,-1.7879,-1.7969,-1.7969,-1.7969,-1.7969,-1.7969,-1.7969,-1.8308,-1.831,-1.8283,-1.8273,-1.8247,-1.8235,-1.8222,-1.8203,-1.818,-1.8163,-1.8148,-1.8121,-1.8088,-1.8063,-1.8046,-1.8034,-1.8029,-1.8049,-1.8032,-1.7967,-1.7956,-1.7946,-1.7944,-1.8048,-1.8048,-1.8104,-1.8104,-1.8105]},{"header":{"parameterUnit":"m.s-1","parameterCategory":1,"la1":30.2991,"la2":30.254,"lo1":-89.0895,"lo2":-89.0444,"dy":0.0017,"dx":0.0017,"nx":28,"ny":28,"refTime":"2025-08-06T03:00:00:Z","depth":0,"parameterNumber":3,"parameterNumberName":"V-component_of_WINDS"},"data":[0,0,0,0,0,0,0,0,0,0,0,0,0,0,0,0,0,0,0,0,0,0,0,0,0,0,0,0,0,0,0,0,0,0,0,0,0,0,0,0,0,0,0,0,0,0,0,0,0,0,0,0,0,0,0,0,0,0,-1.6116,-1.6117,0,-1.6166,-1.6167,-1.6167,-1.615,-1.6149,-1.6148,-1.6147,-1.6201,-1.6203,-1.6205,0,0,0,0,0,0,0,0,0,0,0,0,0,-1.6008,-1.601,-1.6116,-1.6117,-1.6118,-1.6166,-1.6167,-1.6168,-1.615,-1.6149,-1.6148,-1.6146,-1.62,-1.6203,-1.6206,0,0,0,0,0,0,0,0,0,0,0,0,0,-1.6056,-1.6011,-1.6116,-1.6115,-1.6115,-1.6166,-1.6167,-1.6168,-1.6151,-1.6149,-1.6147,-1.6146,-1.6199,-1.6202,-1.6206,-1.6262,0,0,-1.6217,-1.6219,0,0,0,0,0,0,0,0,-1.6054,-1.606,-1.6114,-1.6115,-1.6116,-1.615,-1.6148,-1.6199,-1.6151,-1.6137,-1.6147,-1.6145,-1.6185,-1.619,-1.6203,-1.6264,-1.6267,-1.6218,-1.622,-1.6221,-1.6222,0,0,0,0,0,0,0,-1.605,-1.6058,-1.6136,-1.6115,-1.6116,-1.6112,-1.6117,-1.6158,-1.617,-1.6138,-1.6137,-1.6143,-1.6185,-1.62,-1.6204,-1.6268,-1.6217,-1.6221,-1.6223,-1.6224,-1.6377,-1.6379,0,0,0,0,0,0,-1.6046,-1.6056,-1.6135,-1.6138,-1.608,-1.6116,-1.6121,-1.6141,-1.617,-1.6172,-1.6145,-1.6142,-1.6194,-1.62,-1.6206,-1.6274,-1.6221,-1.6225,-1.6227,-1.6376,-1.6378,-1.638,0,0,0,0,0,0,-1.6044,-1.6054,-1.6133,-1.6096,-1.6106,-1.6119,-1.6141,-1.6143,-1.6157,-1.6174,-1.6177,-1.6157,-1.6193,-1.6201,-1.6248,-1.6275,-1.6226,-1.623,-1.6373,-1.6376,-1.6379,-1.6409,0,0,0,0,0,0,-1.6041,-1.6053,-1.6074,-1.6097,-1.6108,-1.6173,-1.6143,-1.6145,-1.6163,-1.616,-1.6186,-1.6189,-1.6192,-1.6243,-1.6252,-1.628,-1.6233,-1.6371,-1.6375,-1.6378,-1.6406,-1.6413,-1.6419,0,0,0,0,0,-1.6037,-1.6081,-1.6075,-1.6085,-1.6135,-1.6175,-1.6181,-1.6184,-1.6165,-1.6187,-1.6198,-1.6188,-1.6271,-1.6248,-1.6258,-1.6287,-1.6369,-1.6374,-1.6378,-1.6403,-1.6412,-1.6419,0,0,0,0,0,0,-1.6062,-1.6084,-1.6078,-1.613,-1.6151,-1.6172,-1.6199,-1.6192,-1.6219,-1.6216,-1.6218,-1.6224,-1.6272,-1.6284,-1.6258,-1.6343,-1.6317,-1.6324,-1.6333,-1.6341,-1.6348,-1.6344,-1.6236,0,0,0,0,0,-1.6074,-1.6104,-1.6122,-1.6166,-1.6177,-1.6186,-1.6204,-1.6204,-1.6225,-1.6234,-1.6249,-1.6271,-1.6302,-1.6322,-1.6351,-1.6407,-1.6413,-1.6432,-1.6439,-1.6444,-1.645,-1.648,-1.6489,-1.6393,-1.6393,-1.6393,0,0,-1.6098,-1.6114,-1.6133,-1.6172,-1.6188,-1.622,-1.6194,-1.6229,-1.6253,-1.624,-1.6285,-1.6296,-1.6321,-1.6373,-1.6397,-1.6384,-1.6477,-1.6449,-1.6453,-1.6456,-1.6486,-1.6495,-1.6503,-1.6396,-1.6396,-1.6395,0,0,-1.6159,-1.6173,-1.6212,-1.6228,-1.6252,-1.6258,-1.6267,-1.6289,-1.6296,-1.6341,-1.6332,-1.6361,-1.6414,-1.6432,-1.6448,-1.6515,-1.6507,-1.6524,-1.6558,-1.6588,-1.6595,-1.6602,-1.6626,-1.6635,-1.653,-1.653,-1.653,0,-1.6186,-1.6233,-1.6233,-1.6269,-1.6286,-1.6275,-1.6314,-1.633,-1.6363,-1.6376,-1.6361,-1.6427,-1.6443,-1.6499,-1.6515,-1.6528,-1.6539,-1.6522,-1.6594,-1.6601,-1.6607,-1.663,-1.664,-1.6532,-1.6532,-1.6531,-1.6531,0,-1.6266,-1.6299,-1.6327,-1.6358,-1.6379,-1.6416,-1.6422,-1.6443,-1.6441,-1.6449,-1.6495,-1.6513,-1.6546,-1.6559,-1.6557,-1.6615,-1.6607,-1.6593,-1.6568,-1.6618,-1.664,-1.6649,-1.6535,-1.6534,-1.6533,-1.6533,0,0,-1.6345,-1.6374,-1.6385,-1.6399,-1.6424,-1.645,-1.6487,-1.6518,-1.6536,-1.6559,-1.6591,-1.6635,-1.6622,-1.6641,-1.6641,-1.6667,-1.6719,-1.665,-1.6651,-1.6663,-1.6784,-1.6795,-1.6805,-1.6714,-1.6715,-1.6717,-1.6782,0,-1.6408,-1.6473,-1.6473,-1.6533,-1.6563,-1.6552,-1.6585,-1.6604,-1.6612,-1.6639,-1.6648,-1.668,-1.666,-1.6671,-1.6697,-1.6707,-1.6744,-1.6703,-1.6744,-1.6745,-1.6739,-1.6817,-1.6828,-1.6889,-1.6791,-1.6792,-1.6793,0,-1.6491,-1.6515,-1.6578,-1.6598,-1.6611,-1.664,-1.6669,-1.6695,-1.6717,-1.672,-1.674,-1.6736,-1.6774,-1.6747,-1.68,-1.6772,-1.6789,-1.6797,-1.6799,-1.6804,-1.6773,-1.6825,-1.6909,-1.6918,-1.6807,-1.6806,-1.6805,0,-1.6543,-1.6592,-1.6635,-1.6647,-1.6672,-1.6693,-1.6704,-1.6724,-1.6743,-1.6768,-1.678,-1.6809,-1.6826,-1.6849,-1.6853,-1.6833,-1.6906,-1.6879,-1.6911,-1.6912,-1.6929,-1.6928,-1.7018,-1.6938,-1.6938,-1.6937,-1.6937,0,-1.6614,-1.6653,-1.6659,-1.6686,-1.6729,-1.6729,-1.6772,-1.6782,-1.68,-1.6829,-1.6821,-1.6849,-1.6852,-1.6881,-1.6884,-1.6928,-1.6935,-1.694,-1.6941,-1.6941,-1.6941,-1.6953,-1.6949,-1.694,-1.6939,-1.6939,-1.6938,0,-1.6681,-1.6686,-1.6733,-1.6752,-1.6758,-1.6789,-1.6806,-1.6832,-1.6838,-1.6875,-1.6884,-1.6894,-1.6928,-1.6934,-1.6973,-1.6975,-1.7028,-1.7023,-1.702,-1.702,-1.7052,-1.705,-1.7155,-1.7169,-1.7078,-1.7079,-1.708,0,-1.6726,-1.6756,-1.6778,-1.6796,-1.6809,-1.6839,-1.6857,-1.6859,-1.6879,-1.6905,-1.6928,-1.696,-1.6986,-1.704,-1.7051,-1.7081,-1.7079,-1.7113,-1.7083,-1.7083,-1.708,-1.7079,-1.7082,-1.7119,-1.712,-1.7121,-1.7122,0,-1.6807,-1.6808,-1.6835,-1.6863,-1.6885,-1.6907,-1.6928,-1.6944,-1.6948,-1.6971,-1.7004,-1.7024,-1.7064,-1.7096,-1.7126,-1.7138,-1.7131,-1.7131,-1.714,-1.7142,-1.7139,-1.7142,-1.7037,-1.7129,-1.7128,-1.7128,-1.7127,-1.7127,-1.6865,-1.6891,-1.691,-1.694,-1.6956,-1.6976,-1.7001,-1.701,-1.7038,-1.707,-1.7069,-1.7106,-1.7127,-1.7166,-1.718,-1.7209,-1.7198,-1.7211,-1.7215,-1.7218,-1.7222,-1.7133,-1.7214,-1.7214,-1.7214,-1.7214,-1.7214,0,-1.6946,-1.6958,-1.6985,-1.7015,-1.7039,-1.7028,-1.7051,-1.7072,-1.7104,-1.7124,-1.7149,-1.7187,-1.7219,-1.7232,-1.7263,-1.7284,-1.7281,-1.7292,-1.7291,-1.7294,-1.7229,-1.7219,-1.7293,-1.7293,-1.7293,-1.7293,-1.7293,-1.7293,-1.6991,-1.7034,-1.7037,-1.7088,-1.71,-1.7135,-1.7149,-1.7167,-1.7183,-1.7226,-1.7252,-1.726,-1.7277,-1.7309,-1.7337,-1.734,-1.7352,-1.7365,-1.7367,-1.7306,-1.7298,-1.7291,-1.7281,-1.7367,-1.7367,-1.7429,-1.7429,-1.743]}]]